Weather History for Central Park, NY

Change the Weather History Date:

Friday, December 7, 2012

  Actual Average Record
Temperature  
Mean Temperature 41 °F 40 °F  
Max Temperature 46 °F 46 °F 75 °F (1998)
Min Temperature 35 °F 35 °F 10 °F (1926)
Degree Days  
Heating Degree Days 24 25  
Month to date heating degree days 136 166  
Since 1 July heating degree days 1007 999  
Cooling Degree Days 0 0  
Month to date cooling degree days 0 0  
Year to date cooling degree days 1277 1105  
Moisture  
Dew Point 37 °F    
Average Humidity 78    
Maximum Humidity 100    
Minimum Humidity 56    
Precipitation  
Precipitation 0.14 in 0.14 in 1.98 in (1908)
Month to date precipitation 0.25 0.98  
Year to date precipitation 33.96 46.92  
Snow  
Snow 0.00 in 0.10 in 2.00 in (1886)
Month to date snowfall 0.0 0.6  
Since 1 July snowfall 4.7 0.9  
Snow Depth 0.00 in    
Sea Level Pressure  
Sea Level Pressure 30.15 in    
Wind  
Wind Speed 3 mph (WNW)    
Max Wind Speed 12 mph    
Max Gust Speed 17 mph    
Visibility 6 miles    
Events Rain    
T = Trace of Precipitation, MM = Missing Value Source: NWS Daily Summary

Daily Weather History Graph

Daily Weather History Graph

Search for Another Location

Airport:

Trip Planner

Search our weather history database for the weather conditions in past years. The results will help you decide how hot, cold, wet, or windy it might be!

Date:

Astronomy

Dec. 07, 2012 Rise Set
Actual Time 7:06 AM EST 4:28 PM EST
Civil Twilight 6:36 AM EST 4:58 PM EST
Nautical Twilight 6:01 AM EST 5:33 PM EST
Astronomical Twilight 5:28 AM EST 6:06 PM EST
Moon 12:21 AM EST (12/7) 12:25 PM EST (12/7)
Length of Visible Light 10h 22m
Length of Day
9h 21m
Last Quarter, 39% of the Moon is Illuminated
Dec 7
Last Quarter
Dec 13
New
Dec 20
First Quarter
Dec 28
Full
Jan 4
Last Quarter

Hourly Weather History & Observations

Time (EST) Temp. Windchill Dew Point Humidity Pressure Visibility Wind Dir Wind Speed Gust Speed Precip Events Conditions
12:51 AM 36.0 °F 31.1 °F 23.0 °F 59% 30.27 in 10.0 mi West 5.8 mph - N/A   Clear
1:51 AM 36.0 °F 29.6 °F 26.1 °F 67% 30.27 in 10.0 mi West 8.1 mph - N/A   Clear
2:51 AM 36.0 °F 31.1 °F 26.1 °F 67% 30.26 in 10.0 mi West 5.8 mph - N/A   Clear
3:51 AM 37.0 °F 33.3 °F 27.0 °F 67% 30.24 in 10.0 mi WSW 4.6 mph - N/A   Clear
4:20 AM 37.0 °F 31.6 °F 28.0 °F 70% 30.25 in 10.0 mi West 6.9 mph - N/A   Mostly Cloudy
4:51 AM 37.0 °F - 28.0 °F 70% 30.22 in 10.0 mi North - - N/A   Mostly Cloudy
5:51 AM 37.9 °F 35.5 °F 30.0 °F 73% 30.21 in 10.0 mi Variable 3.5 mph - N/A   Scattered Clouds
6:51 AM 39.0 °F 36.8 °F 30.0 °F 70% 30.21 in 10.0 mi WSW 3.5 mph - N/A   Clear
7:07 AM 39.0 °F 34.8 °F 28.9 °F 67% 30.23 in 10.0 mi West 5.8 mph - N/A   Mostly Cloudy
7:31 AM 39.0 °F - 30.0 °F 70% 30.23 in 10.0 mi Calm Calm - N/A   Overcast
7:51 AM 41.0 °F - 30.0 °F 65% 30.21 in 10.0 mi Calm Calm - N/A   Overcast
8:09 AM 41.0 °F - 30.9 °F 67% 30.23 in 10.0 mi Calm Calm - N/A   Overcast
8:13 AM - - - N/A% - - North - - N/A   Unknown
8:51 AM 43.0 °F - 32.0 °F 65% 30.21 in 10.0 mi Calm Calm - N/A   Overcast
9:18 AM 41.0 °F - 32.0 °F 70% 30.22 in 8.0 mi Calm Calm - 0.00 in Rain Light Rain
9:51 AM 39.9 °F 37.8 °F 35.1 °F 83% 30.20 in 6.0 mi WNW 3.5 mph - 0.01 in Rain Light Rain
10:51 AM 41.0 °F - 35.1 °F 79% 30.18 in 8.0 mi Calm Calm - 0.00 in   Overcast
10:59 AM 41.0 °F 39.0 °F 35.1 °F 79% 30.20 in 7.0 mi NNW 3.5 mph - N/A   Overcast
11:51 AM 39.0 °F - 36.0 °F 89% 30.17 in 3.0 mi Calm Calm - 0.02 in Rain Light Rain
12:12 PM 39.9 °F - 37.9 °F 93% 30.18 in 2.5 mi Calm Calm - 0.00 in Rain Light Rain
12:21 PM 39.9 °F - 37.9 °F 93% 30.17 in 3.0 mi Calm Calm - 0.01 in Rain Light Rain
12:32 PM 41.0 °F - 39.0 °F 93% 30.16 in 2.5 mi Calm Calm - 0.01 in Rain Light Rain
12:43 PM 41.0 °F 39.0 °F 39.0 °F 93% 30.16 in 3.0 mi South 3.5 mph - 0.02 in Rain Light Rain
12:51 PM 41.0 °F - 39.9 °F 96% 30.13 in 2.5 mi Calm Calm - 0.02 in Rain Light Rain
1:51 PM 42.1 °F 40.2 °F 39.9 °F 92% 30.11 in 6.0 mi Variable 3.5 mph - 0.01 in Rain Light Rain
2:51 PM 45.0 °F 43.5 °F 39.9 °F 82% 30.09 in 7.0 mi Variable 3.5 mph - 0.02 in   Overcast
3:30 PM 42.1 °F 39.2 °F 39.9 °F 92% 30.11 in 2.0 mi West 4.6 mph - 0.01 in Rain Light Rain
3:51 PM 41.0 °F 37.1 °F 39.9 °F 96% 30.10 in 2.5 mi West 5.8 mph - 0.01 in   Overcast
4:21 PM 42.1 °F 40.2 °F 39.9 °F 92% 30.11 in 4.0 mi NW 3.5 mph - N/A   Overcast
4:36 PM 42.1 °F - 39.9 °F 92% 30.11 in 3.0 mi Calm Calm - 0.00 in Rain Light Rain
4:51 PM 42.1 °F 40.2 °F 41.0 °F 96% 30.09 in 2.5 mi WNW 3.5 mph - 0.00 in Rain Light Rain
4:58 PM 42.1 °F - 41.0 °F 96% 30.11 in 3.0 mi North - - 0.01 in Rain Light Rain
5:51 PM 44.1 °F - 42.1 °F 93% 30.08 in 6.0 mi Calm Calm - 0.01 in   Overcast
6:12 PM 44.1 °F - 42.1 °F 93% 30.10 in 4.0 mi Calm Calm - 0.00 in Rain Light Rain
6:51 PM 45.0 °F - 43.0 °F 93% 30.07 in 5.0 mi Calm Calm - 0.01 in Rain Light Rain
7:09 PM 45.0 °F 42.6 °F 43.0 °F 93% 30.09 in 7.0 mi Variable 4.6 mph - 0.01 in Rain Light Rain
7:40 PM 45.0 °F 42.6 °F 44.1 °F 97% 30.09 in 5.0 mi West 4.6 mph - 0.02 in Rain Light Rain
7:51 PM 45.0 °F 43.5 °F 43.0 °F 93% 30.07 in 5.0 mi Variable 3.5 mph - 0.02 in   Overcast
8:22 PM 44.1 °F 42.5 °F 43.0 °F 96% 30.10 in 4.0 mi WNW 3.5 mph - N/A   Overcast
8:51 PM 43.0 °F - 42.1 °F 97% 30.07 in 3.0 mi Calm Calm - 0.00 in   Overcast
8:59 PM 43.0 °F 41.3 °F 42.1 °F 97% 30.09 in 3.0 mi NW 3.5 mph - N/A   Overcast
9:12 PM 43.0 °F 41.3 °F 42.1 °F 97% 30.09 in 3.0 mi WNW 3.5 mph - N/A   Overcast
9:48 PM 42.8 °F 41.1 °F 42.8 °F 100% 30.08 in 3.0 mi NNW 3.5 mph - N/A   Overcast
9:51 PM 43.0 °F - 42.1 °F 97% 30.06 in 3.0 mi Calm Calm - N/A   Overcast
10:49 PM 44.6 °F - 42.8 °F 93% 30.06 in 3.0 mi Calm Calm - N/A   Overcast
10:51 PM 44.1 °F - 42.1 °F 93% 30.04 in 3.0 mi Calm Calm - N/A   Overcast
11:51 PM 44.1 °F 42.5 °F 43.0 °F 96% 30.02 in 2.5 mi NE 3.5 mph - 0.01 in Rain Light Rain